Location: Hackbridge
(51.3833°N, 0.1500°W)
Time: 02:52:14
(UTC+00:00)

STARLINK-36 - Pass Details

Date: 13 October 2019
Orbit: 549 x 551 km, 53.0° (Epoch: 21 November)

Event Time Altitude Azimuth Distance (km) Brightness Sun altitude
Rises 18:58:20 0° 234° (SW) 2,710 7.9 -17.3°
Reaches altitude 10° 19:00:35 10° 231° (SW) 1,819 6.8 -17.6°
Maximum altitude 19:04:38 56° 153° (SSE) 655 3.7 -18.2°
Enters shadow 19:05:32 45° 105° (ESE) 758 3.8 -18.4°
